Regional Weather Roundup
Issued by NWS

Home | Current Version | Previous Version | Graphics & Text | Print | Product List | Glossary On
Versions: 1 2 3 4 5 6 7 8 9 10 11 12 13 14 15 16 17 18 19 20 21 22 23 24 25 26 27 28 29 30 31 32 33 34 35 36 37 38 39 40 41 42 43 44 45 46 47 48 49 50
000
ASUS44 KMEG 040100
RWRTN
TENNESSEE HOURLY STATE WEATHER ROUNDUP
NATIONAL WEATHER SERVICE MEMPHIS TN
800 PM CDT MON AUG 03 2015

TNZ002-004-019-021-049-052-054-088>092-040200-
WEST TENNESSEE

CITY           SKY/WX    TMP DP  RH WIND       PRES   REMARKS
MEMPHIS INTL   MOCLDY    88  68  51 SW3       29.92R HX  91
NWS MEMPHIS      N/A     86 N/A N/A MISG        N/A
JACKSON        PTCLDY    84  74  71 SW3       29.92S HX  91
DYERSBURG        N/A    N/A N/A N/A MISG        N/A
LEXINGTON      CLEAR     82  75  78 CALM      29.92S
$$

TNZ008-025-027-028-033-062-065-066-040200-
NORTH MIDDLE TENNESSEE

CITY           SKY/WX    TMP DP  RH WIND       PRES   REMARKS
NASHVILLE      MOCLDY    88  66  48 W6        29.92S HX  90
CLARKSVILLE    CLEAR     85  72  65 CALM      29.91S HX  91
CROSSVILLE     PTCLDY    76  68  76 CALM      30.01S
$$

TNZ061-075-076-078-094-096-097-040200-
SOUTH MIDDLE TENNESSEE

CITY           SKY/WX    TMP DP  RH WIND       PRES   REMARKS
FAYETTEVILLE     N/A     81  66  61 CALM      29.95S
TULLAHOMA        N/A     81  70  69 CALM      29.97R
SHELBYVILLE    CLEAR     84  73  70 CALM      29.95R HX  91
$$

TNZ017-018-042-046-047-040200-
NORTHEAST TENNESSEE

CITY           SKY/WX    TMP DP  RH WIND       PRES   REMARKS
TRI CITIES     PTCLDY    80  58  46 W5        29.98S
$$

TNZ012-013-036-069-073-074-040200-
CENTRAL EAST TENNESSEE

CITY           SKY/WX    TMP DP  RH WIND       PRES   REMARKS
KNOXVILLE      PTCLDY    84  60  44 W5        29.94S
OAK RIDGE      CLEAR     84  66  54 SW3       29.96S
$$

TNZ083-085-099-040200-
SOUTHEAST TENNESSEE

CITY           SKY/WX    TMP DP  RH WIND       PRES   REMARKS
CHATTANOOGA    MOCLDY    86  62  44 NE5       29.93S
$$

SKY/WX REPORTED AS FAIR MEANS FEW OR NO CLOUDS BELOW
12 THOUSAND FEET.



USA.gov is the U.S. government's official web portal to all federal, state and local government web resources and services.